Retour au catalogue

KUIPER-00251

ActifCommunicationsLEO
NORAD 67156·PAYLOAD·🇺🇸 United States

Lancé Dec 15, 2025 depuis Cape Canaveral Space Force Station

Loading…

Prochains Passages (prochaines 24 heures)

TLE

FraisSource: CelesTrak SupGP

Époque: Sep 14, 2026, 15:02 UTC

1 67156C 25301Z   26257.62686343  .00007036  00000+0  92112-3 0  2576
2 67156  51.8997 302.6873 0000402  67.3074 172.8672 14.79922560    17

Suivez KUIPER-00251 en temps réel avec AllMySat

Download on the App Store